SCP
0 0 0 0 0 1 2 4 4 3 2 1 3 2 0 0 0 0 0 0 0 0 0 0 0 0 0 0 0 0 0 0 0 0 0 0 0 0 0 0 0 0 0
0 0 0 0 0 1 2 2 4 3 4 3 1 0 0 0 0 0 0 0 0 0 0 0 0 0 0 0 0 0 0 0 0 0 0 0 0 0 0 0 0 0 0
0 0 0 0 0 0 1 2 3 4 4 2 0 0 0 0 0 0 0 0 0 0 0 0 0 0 0 0 0 0 0 0 0 0 0 0 0 0 0 0 0 0 0
0 0 0 1 1 0 1 2 3 4 3 1 0 0 0 0 0 0 0 0 0 0 0 0 0 0 0 0 0 0 0 0 0 0 0 0 0 0 0 0 0 0 0
0 0 0 1 1 1 1 2 3 3 1 0 0 0 0 0 0 0 0 0 0 0 0 0 0 0 0 0 0 0 0 0 0 0 0 0 0 0 0 0 0 0 0
0 0 0 1 1 1 2 3 3 0 0 0 0 0 0 0 0 0 0 0 0 0 0 0 0 0 -0 -0 0 0 0 0 0 0 0 0 0 0 0 0 0 0 0
0 0 0 0 1 1 2 2 0 0 0 0 0 0 0 0 0 0 0 0 0 0 0 0 0 0 -0 0 0 0 0 0 0 0 0 0 0 0 0 0 0 0 0
0 0 0 0 0 1 1 0 0 0 0 0 0 0 0 0 0 0 0 0 0 0 0 0 0 -0 0 0 0 0 0 0 0 0 0 0 0 0 0 0 0 0 0
0 0 0 0 1 2 0 0 0 0 0 0 0 0 0 0 0 0 0 0 0 0 0 0 -0 -0 0 0 0 0 0 0 0 0 0 0 -0 0 0 0 0 0 0
0 0 0 1 1 0 0 0 0 0 0 0 0 0 0 0 0 0 0 0 0 0 0 -0 -0 -0 -0 0 0 0 0 0 0 0 0 0 0 0 0 -0 0 0 0
0 0 1 0 0 0 0 0 0 0 0 0 0 0 0 0 0 0 0 0 0 0 0 -0 -0 -0 -0 0 0 0 0 -0 0 0 0 0 -0 0 0 0 0 0 0
0 0 0 0 0 0 0 0 0 0 0 0 0 0 0 0 0 0 0 0 0 0 -0 -0 -0 -0 0 0 0 0 -0 -0 0 0 0 0 0 0 0 0 0 0 0
0 0 0 0 0 0 0 0 0 0 0 0 0 0 0 0 0 0 0 0 0 0 -0 -0 -0 -0 0 0 0 0 0 0 0 -0 -0 -0 -0 0 0 0 0 0 0
0 0 0 0 0 0 0 0 0 0 0 0 0 0 0 0 0 0 0 0 -0 -0 -0 -0 -0 -0 0 0 0 0 0 -0 -0 -0 -0 -0 -0 0 0 -0 0 0 0
0 0 0 0 0 0 0 0 0 0 0 0 0 0 0 0 0 0 0 0 0 -0 0 -0 -0 0 0 0 0 0 0 0 0 0 -0 -0 -0 0 -0 -0 0 -0 -0
0 0 0 0 0 0 0 0 -0 0 0 0 0 0 0 0 0 0 0 -0 0 0 -0 -0 0 0 0 0 0 0 0 0 0 -0 -0 -0 -0 -0 -0 -0 -0 -0 -0
0 0 0 0 0 0 0 0 0 0 0 0 0 0 0 0 0 -0 -0 -0 -0 -0 -0 -0 0 0 0 0 -0 0 0 -0 -0 -0 -0 -0 -0 -0 -0 -0 -0 -0 -0
-0 -0 0 0 0 0 0 0 0 0 0 0 0 0 0 0 0 -0 -0 -0 -0 -0 -0 0 0 -0 -0 -0 0 0 0 -0 -0 -0 -0 -0 -0 -0 -0 -0 -0 -0 -0
0 0 0 0 0 0 0 0 0 0 0 0 0 0 0 0 0 -0 -0 -0 -0 -0 -0 0 -0 -0 -0 0 0 0 0 -0 -0 -0 -0 -0 -0 -0 -0 -0 -0 -0 -0
0 0 0 0 0 0 0 0 0 0 0 0 0 0 0 0 0 0 -0 -0 -0 -0 0 -0 -0 0 0 -0 -0 -0 -0 -0 -0 -0 -0 -0 -0 -0 -0 -0 -0 -0 -0
0 0 0 0 0 0 0 0 0 0 0 0 0 0 -0 -0 -0 -0 0 -0 -0 -0 -0 0 0 0 0 0 -0 -0 -0 -0 -0 -0 -0 -0 -0 -0 -0 -0 -0 -0 -0
0 0 0 0 0 0 0 0 0 0 0 0 0 0 0 -0 0 0 -0 0 -0 -0 0 0 0 0 -0 -0 -0 -0 0 0 0 -0 -0 -0 -0 -0 -0 -0 -0 -0 -0
0 0 0 0 0 0 0 0 0 0 0 0 0 -0 0 0 -0 0 0 -0 -0 0 0 0 0 -0 -0 -0 -0 0 0 0 -0 -0 -0 -0 -0 -0 -0 -0 -0 -0 -0
0 0 0 0 0 0 0 0 0 0 0 0 0 0 0 0 0 0 -0 -0 0 0 0 0 0 -0 -0 -0 0 0 0 -0 -0 -0 -0 -0 -0 -0 -0 -0 -0 -0 0
0 0 0 0 0 0 0 0 0 0 0 0 0 0 0 0 0 -0 0 0 0 0 0 -0 -0 -0 0 0 0 0 0 -0 0 -0 -0 -0 -0 -0 -0 -0 -0 -0 0
0 0 0 0 0 0 -0 0 0 0 0 0 0 0 0 0 -0 0 0 0 0 0 0 -0 -0 0 0 0 0 0 0 0 0 -0 -0 -0 -0 -0 -0 -0 0 -0 0
Wind_Speed_500mb
47 48 52 56 59 68 65 67 69 79 67 88 76 76 76 90 89 78 80 77 72 59 45 35 23 16 13 11 8 9 10 11 10 19 22 30 37 40 42 44 48 51 52
52 53 57 62 61 57 65 67 65 74 79 81 80 74 71 89 85 83 77 83 61 41 38 29 16 18 14 3 3 6 8 10 13 18 24 31 35 40 46 47 47 48 52
48 54 57 62 64 62 63 65 68 67 76 76 70 73 65 73 81 80 73 55 57 40 28 19 19 15 7 4 2 4 8 12 16 20 26 34 37 44 48 49 48 49 49
52 56 56 55 65 69 71 64 66 68 72 68 75 76 63 70 86 79 68 59 49 42 24 21 20 13 12 7 6 10 12 15 19 24 29 32 38 48 50 52 57 58 59
55 57 55 40 58 60 62 63 65 72 80 80 72 73 78 72 84 79 72 60 42 31 23 22 23 19 13 11 14 14 15 16 22 26 27 28 41 51 54 58 51 54 53
52 58 51 48 56 55 62 67 71 80 80 76 72 67 82 82 86 82 70 54 46 33 39 36 27 20 20 18 18 18 17 21 27 30 30 37 44 46 55 60 55 57 52
51 54 54 53 48 49 65 74 81 87 85 82 74 78 85 84 77 62 57 51 40 38 35 34 32 29 25 21 23 20 20 23 31 38 39 41 43 54 58 59 58 54 49
54 57 52 51 43 39 71 75 80 85 83 84 84 86 94 87 72 66 58 47 45 44 39 34 30 31 28 25 23 20 23 30 39 39 39 43 48 51 53 53 51 49 45
50 51 39 38 34 55 72 90 94 95 95 89 93 102 100 92 78 66 64 56 54 55 46 39 32 31 31 27 20 21 30 36 37 36 38 41 42 47 51 50 44 46 53
41 36 31 27 53 74 94 93 99 96 105 109 120 112 102 96 78 67 59 58 64 60 51 45 34 31 31 25 24 29 30 31 29 28 34 38 43 48 51 50 47 45 50
45 30 27 38 64 88 100 96 93 107 114 127 122 110 101 89 77 57 52 67 63 62 55 48 42 34 30 29 30 28 32 32 35 39 40 43 46 47 49 49 52 49 42
45 31 56 71 85 93 106 102 107 120 137 132 127 113 98 89 76 68 59 59 62 61 58 52 46 36 35 31 30 34 33 37 36 38 44 48 51 53 53 55 56 48 37
59 74 95 95 97 103 106 103 113 110 131 137 127 118 106 88 77 66 64 63 61 61 57 52 46 40 33 36 35 32 37 38 43 46 46 45 46 53 53 58 56 50 37
120 119 111 105 104 104 107 106 127 121 110 134 130 126 113 95 87 77 71 66 62 61 58 53 45 38 37 39 39 36 42 51 51 49 43 36 43 50 55 60 51 49 43
129 124 119 117 112 115 120 129 123 120 103 113 122 122 116 101 87 77 71 66 62 59 60 50 45 42 43 40 39 44 48 50 51 47 35 42 51 58 54 54 49 48 49
127 123 120 120 121 124 133 124 119 113 97 110 108 110 99 95 83 73 67 64 60 54 52 51 48 44 42 41 39 42 48 52 50 39 44 53 58 55 51 49 53 55 54
127 124 120 123 125 136 132 130 121 102 101 95 90 94 93 89 79 74 70 65 53 46 53 54 48 42 45 42 41 43 47 50 44 47 52 60 62 52 49 51 55 56 52
120 121 132 137 132 132 131 127 121 116 108 99 84 85 80 76 72 68 63 60 55 52 52 49 47 44 45 40 44 44 44 41 46 51 57 59 58 49 50 52 54 57 53
137 138 142 143 140 139 125 117 122 117 111 102 89 76 70 69 66 60 55 56 56 51 49 50 45 43 42 43 43 43 45 49 50 54 54 59 59 51 48 49 51 55 52
139 139 137 134 109 111 123 125 119 113 106 97 87 80 72 68 64 58 56 54 52 53 47 45 44 42 42 42 41 38 43 47 50 48 55 58 58 51 46 47 50 52 51
128 116 110 113 117 123 120 114 109 105 100 91 79 72 68 67 65 61 57 55 51 47 43 43 42 42 40 39 36 41 45 46 47 51 53 56 56 55 45 44 46 47 48
107 108 112 115 115 112 109 106 102 96 92 87 78 66 62 64 62 58 54 52 48 46 43 42 40 37 38 37 40 43 44 47 49 50 51 52 53 50 47 44 46 45 45
110 111 110 108 107 105 101 97 94 86 82 74 69 63 59 59 58 55 53 48 46 46 41 37 38 37 38 40 42 42 43 46 49 50 49 48 48 50 45 42 43 44 45
97 102 105 102 96 94 92 79 74 68 63 60 60 60 60 57 54 52 49 47 44 39 38 38 40 38 38 38 37 38 42 45 47 48 47 47 47 46 41 37 39 41 42
91 94 92 91 84 78 77 68 61 58 58 60 59 57 54 52 49 49 48 41 37 38 38 38 38 37 35 32 33 36 39 41 44 46 45 45 43 41 38 33 37 37 41
86 83 78 70 65 62 63 63 59 55 56 56 54 48 45 45 47 45 41 37 36 34 36 35 34 33 30 31 32 34 36 40 43 45 44 43 41 38 38 31 35 35 39
Wind_Direction_500mb
271 269 262 259 250 244 239 241 242 242 234 235 223 217 224 217 217 220 215 209 204 199 188 195 219 249 257 256 290 314 317 317 300 317 332 342 343 343 342 344 346 341 340
269 267 264 256 257 247 240 238 237 236 230 230 233 235 237 217 217 221 212 188 185 189 191 192 210 224 221 230 319 340 343 345 343 344 346 351 349 349 350 349 350 351 345
270 259 263 258 252 251 240 237 234 230 230 228 240 247 232 220 213 203 202 186 174 174 180 176 191 209 174 133 34 26 18 11 358 358 357 357 357 355 352 351 355 358 352
270 259 258 257 247 247 244 233 230 220 221 223 216 227 221 210 196 189 193 180 167 169 176 169 178 188 150 123 89 59 37 16 7 8 7 2 2 358 355 348 351 357 348
266 255 255 254 244 243 233 225 220 211 213 215 210 209 198 201 188 181 175 173 172 159 158 147 182 162 119 111 86 62 44 22 18 21 9 6 3 360 356 355 346 345 350
261 255 249 243 241 235 220 211 209 205 205 211 214 206 191 185 183 175 174 160 143 144 144 174 163 141 122 106 88 69 49 33 28 29 18 11 5 356 356 357 348 346 348
255 241 241 245 252 229 209 202 200 200 195 197 195 200 180 172 160 153 150 138 132 125 166 162 146 128 113 95 78 62 48 39 37 29 19 9 7 4 358 351 351 343 339
250 237 235 237 249 221 201 197 196 197 197 199 187 177 164 151 151 153 143 140 134 147 157 142 132 120 109 90 75 62 50 43 36 24 16 12 9 6 0 352 350 341 345
237 238 232 230 237 201 194 186 188 190 184 179 174 166 156 150 153 152 143 142 144 149 144 133 124 113 101 90 80 68 55 42 32 26 22 15 8 7 1 3 356 353 347
232 224 217 217 201 188 188 186 184 187 177 168 157 154 152 145 144 145 147 140 151 144 136 126 118 108 99 94 85 69 58 51 43 38 29 21 18 13 11 12 5 358 356
220 212 202 192 191 183 177 181 177 174 165 155 148 146 139 137 136 132 144 152 149 139 132 128 119 110 103 92 77 67 60 52 42 34 29 24 24 20 14 13 15 6 356
207 186 173 173 172 167 164 159 161 159 154 147 137 131 129 123 122 132 151 145 139 136 131 122 113 108 95 83 73 64 57 52 44 38 33 26 24 20 18 16 15 12 3
186 168 159 159 160 160 168 161 150 146 145 137 136 129 124 128 130 144 143 137 135 131 122 115 109 99 92 83 72 63 55 50 46 40 32 24 20 19 16 16 18 16 10
142 145 150 154 147 146 153 157 154 139 132 136 129 127 130 137 141 142 137 137 132 123 116 108 104 101 91 83 70 60 54 48 43 38 29 18 20 20 19 17 11 7 10
137 138 140 143 146 138 139 144 143 134 128 129 132 136 141 142 143 138 136 131 125 118 113 111 106 98 85 75 67 57 52 46 41 35 23 23 25 22 19 12 9 11 12
125 128 133 136 137 138 138 131 133 136 131 131 139 139 137 132 131 129 126 121 115 117 115 109 100 92 84 73 64 53 49 44 41 32 28 28 27 22 18 12 12 15 11
128 132 134 135 129 132 130 127 121 128 131 138 131 126 125 127 128 127 121 117 119 120 109 102 95 88 80 71 64 54 49 45 42 37 33 30 29 25 19 14 16 13 14
116 114 118 124 126 121 118 120 127 132 130 125 123 121 121 124 123 119 120 120 121 111 100 98 92 84 78 72 62 54 48 45 41 38 35 31 30 23 17 18 16 13 12
119 120 120 119 119 119 122 128 131 129 125 124 125 122 124 121 120 119 121 117 107 105 101 93 91 85 77 66 59 52 46 42 40 37 34 31 30 25 20 17 15 16 13
120 124 125 120 120 124 129 130 129 128 128 128 128 126 126 126 123 124 114 111 108 98 98 95 89 80 72 66 59 53 46 41 38 35 33 31 30 27 21 16 16 14 11
120 118 120 123 125 129 130 130 129 129 128 126 124 128 128 125 122 119 117 106 101 100 96 90 84 78 72 66 59 53 46 40 36 34 32 29 28 28 21 17 18 13 9
121 123 126 127 130 130 129 130 129 127 125 124 124 128 129 124 124 120 114 109 104 98 91 83 81 78 73 65 58 51 45 40 36 32 31 28 27 26 22 17 16 11 11
130 130 130 130 130 128 126 126 125 124 124 124 125 128 127 122 122 118 113 108 100 91 87 85 80 72 66 60 54 47 41 36 34 29 29 27 26 25 21 16 12 9 9
127 127 126 127 127 127 127 124 124 123 122 124 127 127 126 123 121 120 114 103 95 92 85 77 71 66 60 55 48 42 39 34 30 27 26 25 24 22 20 13 10 7 8
125 125 125 126 126 125 123 121 123 125 126 127 127 125 126 127 123 114 105 105 101 88 79 72 67 62 55 49 43 38 35 30 27 25 24 24 22 19 17 10 8 7 8
128 125 124 122 121 124 125 127 127 129 128 129 128 127 125 120 114 110 108 101 93 85 76 71 64 58 53 46 40 35 31 28 25 22 22 22 19 14 14 10 8 8 7
Wind_Speed_850mb
47 48 52 56 59 68 65 67 69 79 67 88 76 76 76 90 89 78 80 77 72 59 45 35 23 16 13 11 8 9 10 11 10 19 22 30 37 40 42 44 48 51 52
52 53 57 62 61 57 65 67 65 74 79 81 80 74 71 89 85 83 77 83 61 41 38 29 16 18 14 3 3 6 8 10 13 18 24 31 35 40 46 47 47 48 52
48 54 57 62 64 62 63 65 68 67 76 76 70 73 65 73 81 80 73 55 57 40 28 19 19 15 7 4 2 4 8 12 16 20 26 34 37 44 48 49 48 49 49
52 56 56 55 65 69 71 64 66 68 72 68 75 76 63 70 86 79 68 59 49 42 24 21 20 13 12 7 6 10 12 15 19 24 29 32 38 48 50 52 57 58 59
55 57 55 40 58 60 62 63 65 72 80 80 72 73 78 72 84 79 72 60 42 31 23 22 23 19 13 11 14 14 15 16 22 26 27 28 41 51 54 58 51 54 53
52 58 51 48 56 55 62 67 71 80 80 76 72 67 82 82 86 82 70 54 46 33 39 36 27 20 20 18 18 18 17 21 27 30 30 37 44 46 55 60 55 57 52
51 54 54 53 48 49 65 74 81 87 85 82 74 78 85 84 77 62 57 51 40 38 35 34 32 29 25 21 23 20 20 23 31 38 39 41 43 54 58 59 58 54 49
54 57 52 51 43 39 71 75 80 85 83 84 84 86 94 87 72 66 58 47 45 44 39 34 30 31 28 25 23 20 23 30 39 39 39 43 48 51 53 53 51 49 45
50 51 39 38 34 55 72 90 94 95 95 89 93 102 100 92 78 66 64 56 54 55 46 39 32 31 31 27 20 21 30 36 37 36 38 41 42 47 51 50 44 46 53
41 36 31 27 53 74 94 93 99 96 105 109 120 112 102 96 78 67 59 58 64 60 51 45 34 31 31 25 24 29 30 31 29 28 34 38 43 48 51 50 47 45 50
45 30 27 38 64 88 100 96 93 107 114 127 122 110 101 89 77 57 52 67 63 62 55 48 42 34 30 29 30 28 32 32 35 39 40 43 46 47 49 49 52 49 42
45 31 56 71 85 93 106 102 107 120 137 132 127 113 98 89 76 68 59 59 62 61 58 52 46 36 35 31 30 34 33 37 36 38 44 48 51 53 53 55 56 48 37
59 74 95 95 97 103 106 103 113 110 131 137 127 118 106 88 77 66 64 63 61 61 57 52 46 40 33 36 35 32 37 38 43 46 46 45 46 53 53 58 56 50 37
120 119 111 105 104 104 107 106 127 121 110 134 130 126 113 95 87 77 71 66 62 61 58 53 45 38 37 39 39 36 42 51 51 49 43 36 43 50 55 60 51 49 43
129 124 119 117 112 115 120 129 123 120 103 113 122 122 116 101 87 77 71 66 62 59 60 50 45 42 43 40 39 44 48 50 51 47 35 42 51 58 54 54 49 48 49
127 123 120 120 121 124 133 124 119 113 97 110 108 110 99 95 83 73 67 64 60 54 52 51 48 44 42 41 39 42 48 52 50 39 44 53 58 55 51 49 53 55 54
127 124 120 123 125 136 132 130 121 102 101 95 90 94 93 89 79 74 70 65 53 46 53 54 48 42 45 42 41 43 47 50 44 47 52 60 62 52 49 51 55 56 52
120 121 132 137 132 132 131 127 121 116 108 99 84 85 80 76 72 68 63 60 55 52 52 49 47 44 45 40 44 44 44 41 46 51 57 59 58 49 50 52 54 57 53
137 138 142 143 140 139 125 117 122 117 111 102 89 76 70 69 66 60 55 56 56 51 49 50 45 43 42 43 43 43 45 49 50 54 54 59 59 51 48 49 51 55 52
139 139 137 134 109 111 123 125 119 113 106 97 87 80 72 68 64 58 56 54 52 53 47 45 44 42 42 42 41 38 43 47 50 48 55 58 58 51 46 47 50 52 51
128 116 110 113 117 123 120 114 109 105 100 91 79 72 68 67 65 61 57 55 51 47 43 43 42 42 40 39 36 41 45 46 47 51 53 56 56 55 45 44 46 47 48
107 108 112 115 115 112 109 106 102 96 92 87 78 66 62 64 62 58 54 52 48 46 43 42 40 37 38 37 40 43 44 47 49 50 51 52 53 50 47 44 46 45 45
110 111 110 108 107 105 101 97 94 86 82 74 69 63 59 59 58 55 53 48 46 46 41 37 38 37 38 40 42 42 43 46 49 50 49 48 48 50 45 42 43 44 45
97 102 105 102 96 94 92 79 74 68 63 60 60 60 60 57 54 52 49 47 44 39 38 38 40 38 38 38 37 38 42 45 47 48 47 47 47 46 41 37 39 41 42
91 94 92 91 84 78 77 68 61 58 58 60 59 57 54 52 49 49 48 41 37 38 38 38 38 37 35 32 33 36 39 41 44 46 45 45 43 41 38 33 37 37 41
86 83 78 70 65 62 63 63 59 55 56 56 54 48 45 45 47 45 41 37 36 34 36 35 34 33 30 31 32 34 36 40 43 45 44 43 41 38 38 31 35 35 39
Wind_Direction_850mb
271 269 262 259 250 244 239 241 242 242 234 235 223 217 224 217 217 220 215 209 204 199 188 195 219 249 257 256 290 314 317 317 300 317 332 342 343 343 342 344 346 341 340
269 267 264 256 257 247 240 238 237 236 230 230 233 235 237 217 217 221 212 188 185 189 191 192 210 224 221 230 319 340 343 345 343 344 346 351 349 349 350 349 350 351 345
270 259 263 258 252 251 240 237 234 230 230 228 240 247 232 220 213 203 202 186 174 174 180 176 191 209 174 133 34 26 18 11 358 358 357 357 357 355 352 351 355 358 352
270 259 258 257 247 247 244 233 230 220 221 223 216 227 221 210 196 189 193 180 167 169 176 169 178 188 150 123 89 59 37 16 7 8 7 2 2 358 355 348 351 357 348
266 255 255 254 244 243 233 225 220 211 213 215 210 209 198 201 188 181 175 173 172 159 158 147 182 162 119 111 86 62 44 22 18 21 9 6 3 360 356 355 346 345 350
261 255 249 243 241 235 220 211 209 205 205 211 214 206 191 185 183 175 174 160 143 144 144 174 163 141 122 106 88 69 49 33 28 29 18 11 5 356 356 357 348 346 348
255 241 241 245 252 229 209 202 200 200 195 197 195 200 180 172 160 153 150 138 132 125 166 162 146 128 113 95 78 62 48 39 37 29 19 9 7 4 358 351 351 343 339
250 237 235 237 249 221 201 197 196 197 197 199 187 177 164 151 151 153 143 140 134 147 157 142 132 120 109 90 75 62 50 43 36 24 16 12 9 6 0 352 350 341 345
237 238 232 230 237 201 194 186 188 190 184 179 174 166 156 150 153 152 143 142 144 149 144 133 124 113 101 90 80 68 55 42 32 26 22 15 8 7 1 3 356 353 347
232 224 217 217 201 188 188 186 184 187 177 168 157 154 152 145 144 145 147 140 151 144 136 126 118 108 99 94 85 69 58 51 43 38 29 21 18 13 11 12 5 358 356
220 212 202 192 191 183 177 181 177 174 165 155 148 146 139 137 136 132 144 152 149 139 132 128 119 110 103 92 77 67 60 52 42 34 29 24 24 20 14 13 15 6 356
207 186 173 173 172 167 164 159 161 159 154 147 137 131 129 123 122 132 151 145 139 136 131 122 113 108 95 83 73 64 57 52 44 38 33 26 24 20 18 16 15 12 3
186 168 159 159 160 160 168 161 150 146 145 137 136 129 124 128 130 144 143 137 135 131 122 115 109 99 92 83 72 63 55 50 46 40 32 24 20 19 16 16 18 16 10
142 145 150 154 147 146 153 157 154 139 132 136 129 127 130 137 141 142 137 137 132 123 116 108 104 101 91 83 70 60 54 48 43 38 29 18 20 20 19 17 11 7 10
137 138 140 143 146 138 139 144 143 134 128 129 132 136 141 142 143 138 136 131 125 118 113 111 106 98 85 75 67 57 52 46 41 35 23 23 25 22 19 12 9 11 12
125 128 133 136 137 138 138 131 133 136 131 131 139 139 137 132 131 129 126 121 115 117 115 109 100 92 84 73 64 53 49 44 41 32 28 28 27 22 18 12 12 15 11
128 132 134 135 129 132 130 127 121 128 131 138 131 126 125 127 128 127 121 117 119 120 109 102 95 88 80 71 64 54 49 45 42 37 33 30 29 25 19 14 16 13 14
116 114 118 124 126 121 118 120 127 132 130 125 123 121 121 124 123 119 120 120 121 111 100 98 92 84 78 72 62 54 48 45 41 38 35 31 30 23 17 18 16 13 12
119 120 120 119 119 119 122 128 131 129 125 124 125 122 124 121 120 119 121 117 107 105 101 93 91 85 77 66 59 52 46 42 40 37 34 31 30 25 20 17 15 16 13
120 124 125 120 120 124 129 130 129 128 128 128 128 126 126 126 123 124 114 111 108 98 98 95 89 80 72 66 59 53 46 41 38 35 33 31 30 27 21 16 16 14 11
120 118 120 123 125 129 130 130 129 129 128 126 124 128 128 125 122 119 117 106 101 100 96 90 84 78 72 66 59 53 46 40 36 34 32 29 28 28 21 17 18 13 9
121 123 126 127 130 130 129 130 129 127 125 124 124 128 129 124 124 120 114 109 104 98 91 83 81 78 73 65 58 51 45 40 36 32 31 28 27 26 22 17 16 11 11
130 130 130 130 130 128 126 126 125 124 124 124 125 128 127 122 122 118 113 108 100 91 87 85 80 72 66 60 54 47 41 36 34 29 29 27 26 25 21 16 12 9 9
127 127 126 127 127 127 127 124 124 123 122 124 127 127 126 123 121 120 114 103 95 92 85 77 71 66 60 55 48 42 39 34 30 27 26 25 24 22 20 13 10 7 8
125 125 125 126 126 125 123 121 123 125 126 127 127 125 126 127 123 114 105 105 101 88 79 72 67 62 55 49 43 38 35 30 27 25 24 24 22 19 17 10 8 7 8
128 125 124 122 121 124 125 127 127 129 128 129 128 127 125 120 114 110 108 101 93 85 76 71 64 58 53 46 40 35 31 28 25 22 22 22 19 14 14 10 8 8 7